Weather History for KCOF - August, 2013

Change the Weather History Date:

Tuesday, August 20, 2013

  Actual Average Record
Temperature  
Mean Temperature 84 °F -  
Max Temperature 88 °F 85 °F 90 °F (2012)
Min Temperature 80 °F 75 °F 73 °F (1999)
Cooling Degree Days 19    
Growing Degree Days 34 (Base 50)    
Moisture  
Dew Point 75 °F    
Average Humidity 73    
Maximum Humidity 83    
Minimum Humidity 62    
Precipitation  
Precipitation 0.05 in - - ()
Sea Level Pressure  
Sea Level Pressure 30.08 in    
Wind  
Wind Speed 10 mph (ESE)    
Max Wind Speed 16 mph    
Max Gust Speed 22 mph    
Visibility 10 miles    
Events Rain    
Averages and records for this station are not official NWS values.
T = Trace of Precipitation, MM = Missing Value Source: NWS Daily Summary

Daily Weather History Graph

Daily Weather History Graph

Search for Another Location

Airport or City:

Trip Planner

Search our weather history database for the weather conditions in past years. The results will help you decide how hot, cold, wet, or windy it might be!

Date:

Astronomy

Aug. 20, 2013 Rise Set
Actual Time 6:54 AM EDT 7:56 PM EDT
Civil Twilight 6:30 AM EDT 8:20 PM EDT
Nautical Twilight 6:01 AM EDT 8:49 PM EDT
Astronomical Twilight 5:31 AM EDT 9:18 PM EDT
Moon 7:31 PM EDT (8/20) 6:20 AM EDT (8/20)
Length of Visible Light 13h 49m
Length of Day
13h 01m
Full, 100% of the Moon is Illuminated
Aug 20
Full
Aug 20
Full
Aug 28
Last Quarter
Sep 5
New
Sep 12
First Quarter

Hourly Weather History & Observations

Time (EDT) Temp. Heat Index Dew Point Humidity Pressure Visibility Wind Dir Wind Speed Gust Speed Precip Events Conditions
12:58 AM 81.7 °F 88.7 °F 76.1 °F 83% 30.06 in 10.0 mi East 8.1 mph - N/A   Clear
1:58 AM 80.2 °F 84.9 °F 73.8 °F 81% 30.04 in 10.0 mi ESE 8.1 mph - N/A   Clear
2:58 AM 81.5 °F 85.9 °F 71.8 °F 72% 30.06 in 10.0 mi ESE 11.5 mph - N/A   Scattered Clouds
3:58 AM 81.0 °F 85.8 °F 73.2 °F 77% 30.04 in 10.0 mi ESE 11.5 mph - N/A   Clear
4:58 AM 80.8 °F 85.4 °F 73.0 °F 77% 30.04 in 10.0 mi ESE 10.4 mph - N/A   Clear
6:00 AM 80.6 °F 85.4 °F 73.4 °F 79% 30.03 in 10.0 mi East 6.9 mph - N/A   Clear
7:58 AM 82.2 °F 88.8 °F 74.7 °F 78% 30.06 in 10.0 mi SE 10.4 mph - N/A   Clear
8:58 AM 84.6 °F 92.4 °F 74.5 °F 72% 30.08 in 10.0 mi SE 11.5 mph - N/A   Clear
10:51 AM 86.0 °F 95.1 °F 75.2 °F 70% 30.09 in 10.0 mi SE 8.1 mph - N/A   Light Drizzle
10:55 AM 86.0 °F 95.1 °F 75.2 °F 70% 30.09 in 10.0 mi SE 8.1 mph - N/A   Light Drizzle
11:00 AM 86.0 °F 95.1 °F 75.2 °F 70% 30.09 in 10.0 mi SE 8.1 mph - N/A   Clear
11:58 AM 87.1 °F 96.3 °F 74.8 °F 67% 30.12 in 10.0 mi ESE 6.9 mph - 0.00 in   Clear
12:58 PM 88.0 °F 96.0 °F 73.6 °F 62% 30.11 in 10.0 mi ESE 9.2 mph - N/A   Clear
1:58 PM 87.3 °F 96.3 °F 74.5 °F 66% 30.11 in 10.0 mi East 8.1 mph - N/A   Partly Cloudy
2:58 PM 87.3 °F 97.2 °F 75.4 °F 68% 30.09 in 10.0 mi East 12.7 mph - N/A   Partly Cloudy
3:58 PM 87.6 °F 96.7 °F 74.5 °F 65% 30.06 in 10.0 mi East 9.2 mph - N/A   Clear
4:58 PM 87.3 °F 97.2 °F 75.4 °F 68% 30.06 in 10.0 mi East 11.5 mph - N/A   Clear
5:16 PM 87.8 °F 97.6 °F 75.2 °F 66% 30.04 in 10.0 mi East 11.5 mph - N/A   Light Drizzle
5:26 PM 87.8 °F 97.6 °F 75.2 °F 66% 30.05 in 10.0 mi ESE 12.7 mph - N/A   Clear
5:58 PM 86.5 °F 94.6 °F 74.1 °F 66% 30.05 in 10.0 mi East 11.5 mph - 0.00 in   Clear
6:58 PM 85.3 °F 93.4 °F 74.7 °F 70% 30.04 in 10.0 mi ESE 12.7 mph - N/A   Clear
7:58 PM 83.8 °F 90.8 °F 74.1 °F 72% 30.08 in 10.0 mi East 10.4 mph - N/A   Clear
8:57 PM 84.2 °F 92.3 °F 75.2 °F 74% 30.08 in 9.0 mi East 13.8 mph 17.3 mph N/A   Drizzle
8:58 PM 83.7 °F 91.3 °F 75.0 °F 75% 30.09 in 9.0 mi East 12.7 mph 17.3 mph N/A   Drizzle
9:03 PM 82.4 °F 89.5 °F 75.2 °F 79% 30.09 in 4.0 mi East 8.1 mph 17.3 mph N/A Rain Light Rain
9:12 PM 82.4 °F 89.5 °F 75.2 °F 79% 30.09 in 9.0 mi East 10.4 mph - N/A   Partly Cloudy
9:58 PM 81.7 °F 88.0 °F 75.0 °F 80% 30.12 in 10.0 mi ENE 10.4 mph - 0.05 in   Clear
10:58 PM 81.9 °F 88.7 °F 75.6 °F 81% 30.11 in 10.0 mi ENE 16.1 mph 21.9 mph N/A   Clear
11:58 PM 80.8 °F 85.8 °F 73.6 °F 79% 30.12 in 10.0 mi ENE 12.7 mph - N/A   Clear